Kimball, NE

3:38 AM MDT on June 24, 2017 (GMT -0600)
Kimball Municipal-Arraj

Weather History for KIBM - March, 2014

Change the Weather History Date:

Saturday, March 1, 2014

  Actual Average (KSNY) Record (KSNY)
Temperature  
Mean Temperature 4 °F -  
Max Temperature 11 °F 48 °F 75 °F (2008)
Min Temperature -3 °F 20 °F -12 °F (1980)
Degree Days  
Heating Degree Days 61    
Moisture  
Dew Point -1 °F    
Average Humidity 80    
Maximum Humidity 88    
Minimum Humidity 73    
Precipitation  
Precipitation 0.00 in - - ()
Sea Level Pressure  
Sea Level Pressure 29.96 in    
Wind  
Wind Speed 15 mph (ESE)    
Max Wind Speed 21 mph    
Max Gust Speed -    
Visibility 2 miles    
Events Snow    
Averages and records for this station are not official NWS values.
T = Trace of Precipitation, MM = Missing Value Source: NWS Daily Summary

Daily Weather History Graph

Daily Weather History Graph

Search for Another Location

Airport or City:

Trip Planner

Search our weather history database for the weather conditions in past years. The results will help you decide how hot, cold, wet, or windy it might be!

Date:

Astronomy

Mar. 01, 2014 Rise Set
Actual Time 7:28 AM CST 6:45 PM CST
Civil Twilight 7:01 AM CST 7:13 PM CST
Nautical Twilight 6:29 AM CST 7:45 PM CST
Astronomical Twilight 5:57 AM CST 8:17 PM CST
Moon 7:23 AM CST (3/1) 7:36 PM CST (3/1)
Length of Visible Light 12h 12m
Length of Day
11h 16m
New Moon, 0% of the Moon is Illuminated
Mar 1
New Moon
Mar 8
First Quarter
Mar 16
Full
Mar 23
Last Quarter
Mar 30
New

Hourly Weather History & Observations

Time (CST) Temp. Windchill Dew Point Humidity Pressure Visibility Wind Dir Wind Speed Gust Speed Precip Events Conditions
12:15 AM 11.8 °F -4.2 °F 8.6 °F 87% 29.89 in 5.0 mi ESE 15.0 mph - N/A Snow Light Snow
12:35 AM 11.7 °F -3.8 °F 8.6 °F 88% 29.88 in 4.0 mi ESE 13.8 mph - N/A Snow Light Snow
12:55 AM 11.7 °F -4.4 °F 8.6 °F 88% 29.87 in 2.5 mi ESE 15.0 mph - N/A Snow Light Snow
1:15 AM 11.3 °F -4.3 °F 8.4 °F 88% 29.88 in 2.0 mi East 13.8 mph - N/A Snow Light Snow
1:35 AM 10.4 °F -5.4 °F 7.3 °F 87% 29.88 in 1.5 mi East 13.8 mph - N/A Snow Light Snow
1:55 AM 10.0 °F -5.9 °F 7.0 °F 87% 29.87 in 1.2 mi East 13.8 mph - N/A Snow Light Snow
2:15 AM 9.7 °F -6.3 °F 6.6 °F 87% 29.86 in 1.2 mi ESE 13.8 mph - N/A Snow Light Snow
2:35 AM 9.5 °F -6.6 °F 6.4 °F 87% 29.86 in 1.2 mi ESE 13.8 mph - N/A Snow Light Snow
2:55 AM 9.5 °F -7.8 °F 6.3 °F 87% 29.85 in 1.5 mi ESE 16.1 mph - N/A Snow Light Snow
3:15 AM 9.3 °F -8.6 °F 5.9 °F 86% 29.84 in 1.5 mi ESE 17.3 mph - N/A Snow Light Snow
3:35 AM 8.8 °F -8.1 °F 5.4 °F 86% 29.84 in 1.8 mi ESE 15.0 mph - N/A Snow Light Snow
3:55 AM 8.8 °F -7.5 °F 5.2 °F 85% 29.85 in 2.0 mi ESE 13.8 mph - N/A Snow Light Snow
4:15 AM 8.6 °F -8.3 °F 5.0 °F 85% 29.86 in 1.8 mi ESE 15.0 mph - N/A Snow Light Snow
4:35 AM 8.2 °F -8.2 °F 4.5 °F 85% 29.85 in 1.8 mi ESE 13.8 mph - N/A Snow Light Snow
4:55 AM 7.7 °F -8.9 °F 4.1 °F 85% 29.86 in 1.5 mi East 13.8 mph - N/A Snow Light Snow
5:15 AM 8.1 °F -8.4 °F 4.1 °F 84% 29.90 in 1.8 mi East 13.8 mph - N/A Snow Light Snow
5:35 AM 7.7 °F -8.9 °F 3.9 °F 85% 29.91 in 1.8 mi East 13.8 mph - N/A Snow Light Snow
5:55 AM 7.3 °F -10.0 °F 3.4 °F 84% 29.89 in 2.0 mi East 15.0 mph - N/A Snow Light Snow
6:15 AM 7.2 °F -10.2 °F 3.2 °F 84% 29.90 in 2.0 mi East 15.0 mph - N/A Snow Light Snow
6:35 AM 7.0 °F -10.4 °F 3.0 °F 84% 29.88 in 1.2 mi East 15.0 mph - N/A Snow Light Snow
6:55 AM 6.6 °F -12.1 °F 2.7 °F 84% 29.91 in 1.8 mi East 17.3 mph - N/A Snow Light Snow
7:15 AM 6.4 °F -11.1 °F 2.3 °F 83% 29.92 in 2.0 mi ENE 15.0 mph - N/A Snow Light Snow
7:35 AM 5.9 °F -11.2 °F 2.1 °F 84% 29.93 in 1.5 mi East 13.8 mph - N/A Snow Light Snow
7:55 AM 5.9 °F -13.0 °F 2.1 °F 84% 29.92 in 0.8 mi East 17.3 mph - N/A Snow Light Snow
8:15 AM 5.9 °F -11.8 °F 1.9 °F 84% 29.94 in 0.8 mi East 15.0 mph - N/A Snow Light Snow
8:35 AM 5.7 °F -13.2 °F 1.4 °F 82% 29.93 in 1.2 mi East 17.3 mph - N/A Snow Light Snow
8:55 AM 5.7 °F -9.9 °F 1.6 °F 83% 29.96 in 1.2 mi East 11.5 mph - N/A Snow Light Snow
9:15 AM 5.7 °F -12.0 °F 1.4 °F 82% 29.96 in 0.8 mi East 15.0 mph - N/A Snow Light Snow
9:35 AM 4.5 °F -14.3 °F -0.0 °F 82% 29.97 in 1.0 mi East 16.1 mph - N/A Snow Light Snow
9:55 AM 4.1 °F -15.3 °F -0.0 °F 83% 29.97 in 1.0 mi East 17.3 mph - N/A   Overcast
10:15 AM 4.1 °F -14.1 °F -0.2 °F 82% 29.98 in 1.5 mi East 15.0 mph - N/A   Overcast
10:35 AM 3.9 °F -11.3 °F -0.6 °F 82% 30.02 in 1.0 mi East 10.4 mph - N/A Snow Light Snow
10:55 AM 3.7 °F -17.4 °F -0.9 °F 81% 29.96 in 0.5 mi East 20.7 mph - N/A Snow Light Snow
11:15 AM 3.7 °F -16.4 °F -0.9 °F 81% 29.96 in 0.2 mi East 18.4 mph - N/A Snow Snow
11:35 AM 3.9 °F -13.7 °F -0.8 °F 81% 30.02 in 1.0 mi East 13.8 mph - N/A Snow Light Snow
11:55 AM 3.9 °F -14.3 °F -0.9 °F 80% 29.99 in 0.8 mi East 15.0 mph - N/A Snow Light Snow
12:15 PM 3.4 °F -16.8 °F -1.8 °F 79% 29.97 in 1.8 mi East 18.4 mph - N/A Snow Light Snow
12:35 PM 3.4 °F -17.4 °F -2.2 °F 78% 29.97 in 1.2 mi East 19.6 mph - N/A Snow Light Snow
12:55 PM 3.2 °F -15.9 °F -2.9 °F 76% 29.98 in 1.2 mi East 16.1 mph - N/A   Haze
1:15 PM 3.0 °F -14.1 °F -3.5 °F 74% 29.99 in 2.5 mi East 12.7 mph - N/A   Haze
1:35 PM 2.5 °F -14.8 °F -3.8 °F 75% 29.99 in 1.5 mi ESE 12.7 mph - N/A   Haze
1:55 PM 3.0 °F -16.1 °F -4.0 °F 73% 29.98 in 1.8 mi ESE 16.1 mph - N/A   Haze
2:15 PM 2.7 °F -14.5 °F -3.8 °F 74% 29.99 in 2.0 mi East 12.7 mph - N/A   Haze
2:35 PM 3.0 °F -14.1 °F -3.8 °F 73% 29.98 in 2.0 mi East 12.7 mph - N/A   Haze
2:55 PM 2.7 °F -16.0 °F -3.6 °F 75% 29.98 in 1.8 mi East 15.0 mph - N/A   Haze
3:15 PM 2.3 °F -17.1 °F -4.5 °F 73% 29.96 in 2.0 mi ESE 16.1 mph - N/A   Haze
3:35 PM 1.8 °F -17.1 °F -4.9 °F 74% 29.96 in 2.0 mi East 15.0 mph - N/A   Haze
3:55 PM 1.4 °F -17.6 °F -4.7 °F 76% 29.96 in 2.0 mi ESE 15.0 mph - N/A   Haze
4:15 PM 1.2 °F -19.1 °F -5.1 °F 75% 29.96 in 2.0 mi East 17.3 mph - N/A   Haze
4:35 PM 0.9 °F -18.3 °F -5.3 °F 75% 29.96 in 2.0 mi ESE 15.0 mph - N/A   Haze
4:55 PM 0.9 °F -18.3 °F -5.3 °F 75% 29.97 in 1.8 mi ESE 15.0 mph - N/A   Haze
5:15 PM -0.0 °F -20.1 °F -5.8 °F 77% 29.97 in 1.8 mi ESE 16.1 mph - N/A   Haze
5:35 PM -0.4 °F -19.2 °F -6.3 °F 76% 29.99 in 4.0 mi East 13.8 mph - N/A   Haze
5:55 PM -0.6 °F -20.8 °F -6.3 °F 77% 29.99 in 1.8 mi ESE 16.1 mph - N/A   Haze
6:15 PM -0.8 °F -21.0 °F -6.3 °F 77% 29.99 in 2.0 mi ESE 16.1 mph - N/A   Haze
6:35 PM -1.3 °F -20.3 °F -6.7 °F 78% 30.02 in 2.0 mi East 13.8 mph - N/A   Haze
6:55 PM -1.7 °F -22.2 °F -6.9 °F 78% 30.01 in 1.8 mi ESE 16.1 mph - N/A   Haze
7:15 PM -1.5 °F -21.3 °F -6.7 °F 78% 30.02 in 3.0 mi ESE 15.0 mph - N/A   Haze
7:35 PM -1.8 °F -21.0 °F -7.6 °F 76% 30.03 in 4.0 mi ESE 13.8 mph - N/A   Haze
7:55 PM -2.2 °F -21.5 °F -8.0 °F 76% 30.06 in 4.0 mi ESE 13.8 mph - N/A   Haze
8:15 PM -2.2 °F -21.5 °F -7.8 °F 77% 30.05 in 5.0 mi East 13.8 mph - N/A   Haze
8:35 PM -2.7 °F -22.1 °F -8.3 °F 77% 30.06 in 7.0 mi East 13.8 mph - N/A   Overcast
8:55 PM -3.1 °F -23.3 °F -8.5 °F 78% 30.06 in 5.0 mi ESE 15.0 mph - N/A   Haze
9:15 PM -3.1 °F -23.3 °F -8.9 °F 76% 30.06 in 4.0 mi ESE 15.0 mph - N/A   Haze
9:35 PM -3.1 °F -24.7 °F -8.7 °F 77% 30.05 in 7.0 mi SE 17.3 mph - N/A   Overcast
9:55 PM -3.3 °F -24.2 °F -8.7 °F 78% 30.04 in 5.0 mi SE 16.1 mph - N/A   Haze
10:15 PM -3.3 °F -23.6 °F -8.5 °F 78% 30.05 in 5.0 mi SE 15.0 mph - N/A   Haze
10:35 PM -3.5 °F -23.8 °F -8.7 °F 78% 30.07 in 7.0 mi SE 15.0 mph - N/A   Overcast
10:55 PM -3.5 °F -24.5 °F -8.5 °F 79% 30.06 in 5.0 mi SE 16.1 mph - N/A   Haze
11:15 PM -3.5 °F -24.5 °F -8.5 °F 79% 30.06 in 5.0 mi SE 16.1 mph - N/A   Haze
11:35 PM -3.6 °F -23.3 °F -8.9 °F 78% 30.07 in 5.0 mi SE 13.8 mph - N/A   Haze
11:55 PM -3.5 °F -23.8 °F -8.5 °F 79% 30.06 in 5.0 mi SE 15.0 mph - N/A   Haze